Location: Nied?wied?
(53.3665°N, 14.8184°E)
Time: 19:23:51
(UTC+00:00)

ISS - Pass Details

Date: 16 May 2021
Orbit: 417 x 422 km, 51.6° (Epoch: 14 June)

Event Time Altitude Azimuth Distance (km) Brightness Sun altitude
Rises 00:51:33 0° 279° (W) 2,374 -0.1 -13.4°
Reaches altitude 10° 00:53:47 10° 269° (W) 1,508 -1.2 -13.3°
Maximum altitude 00:56:50 31° 205° (SSW) 759 -3.0 -13.1°
Drops below altitude 10° 00:59:52 10° 141° (SE) 1,505 -1.2 -12.8°
Sets 01:02:06 0° 131° (SE) 2,368 0.0 -12.7°
